Time,TemperatureF,DewpointF,PressureIn,WindDirection,WindDirectionDegrees,WindSpeedMPH,WindSpeedGustMPH,Humidity,HourlyPrecipIn,Conditions,Clouds,dailyrainin,SoftwareType,DateUTC
2013-10-26 00:00:00,44.4,37.0,30.25,WSW,240,3.0,14.0,75,0.00,,---,0.00,VWS V14.01,2013-10-26 04:00:00,
2013-10-26 00:01:00,44.4,37.0,30.25,WNW,302,4.0,14.0,75,0.00,,---,0.00,VWS V14.01,2013-10-26 04:01:00,
2013-10-26 00:02:00,44.3,36.9,30.25,WSW,255,7.0,8.0,75,0.00,,---,0.00,VWS V14.01,2013-10-26 04:02:00,
2013-10-26 00:07:00,44.3,37.2,30.25,West,262,2.0,9.0,76,0.00,,---,0.00,VWS V14.01,2013-10-26 04:07:00,
2013-10-26 00:12:00,44.4,37.3,30.25,WSW,254,5.0,10.0,76,0.00,,---,0.00,VWS V14.01,2013-10-26 04:12:00,
2013-10-26 00:17:00,44.5,37.1,30.25,SW,232,8.0,11.0,75,0.00,,---,0.00,VWS V14.01,2013-10-26 04:17:00,
2013-10-26 00:22:00,44.5,37.1,30.25,NW,304,7.0,11.0,75,0.00,,---,0.00,VWS V14.01,2013-10-26 04:22:00,
2013-10-26 00:27:00,44.4,37.0,30.25,WSW,243,6.0,14.0,75,0.00,,---,0.00,VWS V14.01,2013-10-26 04:27:00,
2013-10-26 00:32:00,44.3,36.9,30.25,West,259,6.0,13.0,75,0.00,,---,0.00,VWS V14.01,2013-10-26 04:32:00,
2013-10-26 00:37:00,44.3,36.5,30.25,WNW,282,8.0,13.0,74,0.00,,---,0.00,VWS V14.01,2013-10-26 04:37:00,
2013-10-26 00:42:00,44.2,36.8,30.25,WNW,285,9.0,13.0,75,0.00,,---,0.00,VWS V14.01,2013-10-26 04:42:00,
2013-10-26 00:47:00,44.2,36.8,30.25,West,274,7.0,13.0,75,0.00,,---,0.00,VWS V14.01,2013-10-26 04:47:00,
2013-10-26 00:52:00,44.1,37.0,30.25,West,268,5.0,13.0,76,0.00,,---,0.00,VWS V14.01,2013-10-26 04:52:00,
2013-10-26 00:57:00,43.9,36.8,30.25,WNW,295,6.0,13.0,76,0.00,,---,0.00,VWS V14.01,2013-10-26 04:57:00,
2013-10-26 01:02:00,43.8,36.7,30.25,WNW,298,5.0,12.0,76,0.00,,---,0.00,VWS V14.01,2013-10-26 05:02:00,
2013-10-26 01:07:00,43.7,37.0,30.25,WNW,288,6.0,12.0,77,0.00,,---,0.00,VWS V14.01,2013-10-26 05:07:00,
2013-10-26 01:12:00,43.7,36.6,30.25,West,278,7.0,12.0,76,0.00,,---,0.00,VWS V14.01,2013-10-26 05:12:00,
2013-10-26 01:17:00,43.6,36.2,30.25,WSW,256,10.0,12.0,75,0.00,,---,0.00,VWS V14.01,2013-10-26 05:17:00,
2013-10-26 01:22:00,43.4,36.0,30.25,WNW,288,13.0,13.0,75,0.00,,---,0.00,VWS V14.01,2013-10-26 05:22:00,
2013-10-26 01:27:00,43.0,35.6,30.25,WNW,283,8.0,13.0,75,0.00,,---,0.00,VWS V14.01,2013-10-26 05:27:00,
2013-10-26 01:32:00,42.8,35.4,30.25,WNW,285,7.0,8.0,75,0.00,,---,0.00,VWS V14.01,2013-10-26 05:32:00,
2013-10-26 01:37:00,42.7,35.7,30.25,WNW,303,5.0,12.0,76,0.00,,---,0.00,VWS V14.01,2013-10-26 05:37:00,
2013-10-26 01:42:00,42.7,35.7,30.25,WSW,245,6.0,12.0,76,0.00,,---,0.00,VWS V14.01,2013-10-26 05:42:00,
2013-10-26 01:47:00,42.7,35.7,30.25,WNW,282,4.0,12.0,76,0.00,,---,0.00,VWS V14.01,2013-10-26 05:47:00,
2013-10-26 01:52:00,42.7,35.3,30.25,West,260,9.0,12.0,75,0.00,,---,0.00,VWS V14.01,2013-10-26 05:52:00,
2013-10-26 01:57:00,42.7,35.7,30.25,WNW,302,6.0,12.0,76,0.00,,---,0.00,VWS V14.01,2013-10-26 05:57:00,
2013-10-26 02:02:00,42.6,35.6,30.25,WNW,295,7.0,7.0,76,0.00,,---,0.00,VWS V14.01,2013-10-26 06:02:00,
2013-10-26 02:07:00,42.7,35.7,30.24,West,276,5.0,9.0,76,0.00,,---,0.00,VWS V14.01,2013-10-26 06:07:00,
2013-10-26 02:12:00,42.6,35.6,30.24,NW,315,3.0,9.0,76,0.00,,---,0.00,VWS V14.01,2013-10-26 06:12:00,
2013-10-26 02:17:00,42.5,35.5,30.24,WSW,256,9.0,11.0,76,0.00,,---,0.00,VWS V14.01,2013-10-26 06:17:00,
2013-10-26 02:22:00,42.5,35.2,30.24,West,279,5.0,12.0,75,0.00,,---,0.00,VWS V14.01,2013-10-26 06:22:00,
2013-10-26 02:27:00,42.4,35.0,30.24,WSW,254,8.0,12.0,75,0.00,,---,0.00,VWS V14.01,2013-10-26 06:27:00,
2013-10-26 02:32:00,42.4,34.7,30.23,WNW,288,7.0,9.0,74,0.00,,---,0.00,VWS V14.01,2013-10-26 06:32:00,
2013-10-26 02:37:00,42.4,34.7,30.23,West,271,5.0,9.0,74,0.00,,---,0.00,VWS V14.01,2013-10-26 06:37:00,
2013-10-26 02:42:00,42.4,34.7,30.23,WNW,293,4.0,9.0,74,0.00,,---,0.00,VWS V14.01,2013-10-26 06:42:00,
2013-10-26 02:47:00,42.4,35.0,30.23,WNW,293,6.0,10.0,75,0.00,,---,0.00,VWS V14.01,2013-10-26 06:47:00,
2013-10-26 02:52:00,42.3,35.0,30.23,WNW,284,6.0,10.0,75,0.00,,---,0.00,VWS V14.01,2013-10-26 06:52:00,
2013-10-26 02:57:00,42.2,35.2,30.23,West,267,6.0,10.0,76,0.00,,---,0.00,VWS V14.01,2013-10-26 06:57:00,
2013-10-26 03:02:00,42.1,35.1,30.23,West,271,8.0,11.0,76,0.00,,---,0.00,VWS V14.01,2013-10-26 07:02:00,
2013-10-26 03:07:00,42.0,35.0,30.23,NW,323,5.0,11.0,76,0.00,,---,0.00,VWS V14.01,2013-10-26 07:07:00,
2013-10-26 03:12:00,41.9,34.6,30.23,WNW,297,6.0,11.0,75,0.00,,---,0.00,VWS V14.01,2013-10-26 07:12:00,
2013-10-26 03:17:00,41.9,34.9,30.23,West,278,7.0,11.0,76,0.00,,---,0.00,VWS V14.01,2013-10-26 07:17:00,
2013-10-26 03:22:00,41.8,34.8,30.23,WSW,252,7.0,11.0,76,0.00,,---,0.00,VWS V14.01,2013-10-26 07:22:00,
2013-10-26 03:27:00,41.7,35.0,30.24,WSW,252,7.0,12.0,77,0.00,,---,0.00,VWS V14.01,2013-10-26 07:27:00,
2013-10-26 03:32:00,41.6,34.9,30.24,West,266,5.0,9.0,77,0.00,,---,0.00,VWS V14.01,2013-10-26 07:32:00,
2013-10-26 03:37:00,41.5,34.8,30.24,WNW,295,7.0,9.0,77,0.00,,---,0.00,VWS V14.01,2013-10-26 07:37:00,
2013-10-26 03:42:00,41.3,35.0,30.24,West,276,7.0,9.0,78,0.00,,---,0.00,VWS V14.01,2013-10-26 07:42:00,
2013-10-26 03:47:00,41.2,34.9,30.24,West,278,6.0,9.0,78,0.00,,---,0.00,VWS V14.01,2013-10-26 07:47:00,
2013-10-26 03:52:00,41.2,34.5,30.24,WNW,300,6.0,10.0,77,0.00,,---,0.00,VWS V14.01,2013-10-26 07:52:00,
2013-10-26 03:57:00,41.3,35.0,30.24,NW,304,7.0,11.0,78,0.00,,---,0.00,VWS V14.01,2013-10-26 07:57:00,
2013-10-26 04:03:00,41.3,35.0,30.24,WNW,293,2.0,12.0,78,0.00,,---,0.00,VWS V14.01,2013-10-26 08:03:00,
2013-10-26 04:08:00,41.3,35.3,30.24,West,274,8.0,12.0,79,0.00,,---,0.00,VWS V14.01,2013-10-26 08:08:00,
2013-10-26 04:13:00,41.2,35.2,30.24,NW,326,3.0,12.0,79,0.00,,---,0.00,VWS V14.01,2013-10-26 08:13:00,
2013-10-26 04:18:00,41.2,35.5,30.24,West,271,5.0,12.0,80,0.00,,---,0.00,VWS V14.01,2013-10-26 08:18:00,
2013-10-26 04:23:00,41.0,35.0,30.24,North,9,5.0,12.0,79,0.00,,---,0.00,VWS V14.01,2013-10-26 08:23:00,
2013-10-26 04:28:00,40.8,34.8,30.24,NW,325,5.0,12.0,79,0.00,,---,0.00,VWS V14.01,2013-10-26 08:28:00,
2013-10-26 04:33:00,40.6,34.6,30.24,West,267,6.0,8.0,79,0.00,,---,0.00,VWS V14.01,2013-10-26 08:33:00,
2013-10-26 04:38:00,40.4,34.4,30.24,West,271,5.0,10.0,79,0.00,,---,0.00,VWS V14.01,2013-10-26 08:38:00,
2013-10-26 04:43:00,40.3,34.3,30.24,West,281,3.0,10.0,79,0.00,,---,0.00,VWS V14.01,2013-10-26 08:43:00,
2013-10-26 04:48:00,40.1,34.4,30.24,West,276,5.0,10.0,80,0.00,,---,0.00,VWS V14.01,2013-10-26 08:48:00,
2013-10-26 04:53:00,40.0,34.3,30.24,West,280,6.0,10.0,80,0.00,,---,0.00,VWS V14.01,2013-10-26 08:53:00,
2013-10-26 04:58:00,39.9,34.2,30.24,West,262,5.0,11.0,80,0.00,,---,0.00,VWS V14.01,2013-10-26 08:58:00,
2013-10-26 05:03:00,39.9,34.2,30.24,West,270,4.0,6.0,80,0.00,,---,0.00,VWS V14.01,2013-10-26 09:03:00,
2013-10-26 05:08:00,39.9,34.2,30.24,WNW,293,5.0,8.0,80,0.00,,---,0.00,VWS V14.01,2013-10-26 09:08:00,
2013-10-26 05:13:00,39.8,34.1,30.23,West,274,5.0,8.0,80,0.00,,---,0.00,VWS V14.01,2013-10-26 09:13:00,
2013-10-26 05:18:00,39.9,34.2,30.24,West,271,5.0,8.0,80,0.00,,---,0.00,VWS V14.01,2013-10-26 09:18:00,
2013-10-26 05:23:00,40.0,34.7,30.24,West,281,4.0,8.0,81,0.00,,---,0.00,VWS V14.01,2013-10-26 09:23:00,
2013-10-26 05:28:00,40.1,34.8,30.24,WSW,250,7.0,8.0,81,0.00,,---,0.00,VWS V14.01,2013-10-26 09:28:00,
2013-10-26 05:33:00,40.1,34.8,30.24,West,264,5.0,9.0,81,0.00,,---,0.00,VWS V14.01,2013-10-26 09:33:00,
2013-10-26 05:38:00,40.1,34.8,30.24,West,278,5.0,10.0,81,0.00,,---,0.00,VWS V14.01,2013-10-26 09:38:00,
2013-10-26 05:43:00,40.1,34.8,30.24,West,275,7.0,10.0,81,0.00,,---,0.00,VWS V14.01,2013-10-26 09:43:00,
2013-10-26 05:48:00,40.0,34.7,30.24,West,264,4.0,10.0,81,0.00,,---,0.00,VWS V14.01,2013-10-26 09:48:00,
2013-10-26 05:53:00,39.8,34.5,30.24,West,280,4.0,10.0,81,0.00,,---,0.00,VWS V14.01,2013-10-26 09:53:00,
2013-10-26 05:58:00,39.7,34.4,30.24,West,272,6.0,10.0,81,0.00,,---,0.00,VWS V14.01,2013-10-26 09:58:00,
2013-10-26 06:03:00,39.6,34.6,30.24,West,264,8.0,8.0,82,0.00,,---,0.00,VWS V14.01,2013-10-26 10:03:00,
2013-10-26 06:08:00,39.6,34.6,30.24,West,280,6.0,8.0,82,0.00,,---,0.00,VWS V14.01,2013-10-26 10:08:00,
2013-10-26 06:13:00,39.5,34.5,30.24,West,264,4.0,10.0,82,0.00,,---,0.00,VWS V14.01,2013-10-26 10:13:00,
2013-10-26 06:18:00,39.3,34.3,30.24,SW,233,8.0,10.0,82,0.00,,---,0.00,VWS V14.01,2013-10-26 10:18:00,
2013-10-26 06:23:00,39.2,34.2,30.23,WSW,258,5.0,10.0,82,0.00,,---,0.00,VWS V14.01,2013-10-26 10:23:00,
2013-10-26 06:28:00,39.1,34.1,30.24,West,277,4.0,11.0,82,0.00,,---,0.00,VWS V14.01,2013-10-26 10:28:00,
2013-10-26 06:33:00,38.9,33.9,30.23,WNW,295,4.0,7.0,82,0.00,,---,0.00,VWS V14.01,2013-10-26 10:33:00,
2013-10-26 06:38:00,38.8,33.8,30.23,West,268,5.0,9.0,82,0.00,,---,0.00,VWS V14.01,2013-10-26 10:38:00,
2013-10-26 06:43:00,38.9,33.9,30.23,West,276,5.0,10.0,82,0.00,,---,0.00,VWS V14.01,2013-10-26 10:43:00,
2013-10-26 06:48:00,38.9,33.9,30.23,WNW,284,7.0,10.0,82,0.00,,---,0.00,VWS V14.01,2013-10-26 10:48:00,
2013-10-26 06:53:00,39.0,34.0,30.23,West,280,4.0,10.0,82,0.00,,---,0.00,VWS V14.01,2013-10-26 10:53:00,
2013-10-26 06:58:00,39.0,34.0,30.23,West,259,6.0,10.0,82,0.00,,---,0.00,VWS V14.01,2013-10-26 10:58:00,
2013-10-26 07:03:00,39.0,34.0,30.23,WNW,295,3.0,7.0,82,0.00,,---,0.00,VWS V14.01,2013-10-26 11:03:00,
2013-10-26 07:08:00,39.0,34.0,30.23,WNW,285,5.0,9.0,82,0.00,,---,0.00,VWS V14.01,2013-10-26 11:08:00,
2013-10-26 07:13:00,39.0,34.0,30.23,West,274,7.0,9.0,82,0.00,,---,0.00,VWS V14.01,2013-10-26 11:13:00,
2013-10-26 07:18:00,39.1,34.1,30.23,NW,316,7.0,9.0,82,0.00,,---,0.00,VWS V14.01,2013-10-26 11:18:00,
2013-10-26 07:23:00,39.1,34.1,30.23,WNW,290,7.0,11.0,82,0.00,,---,0.00,VWS V14.01,2013-10-26 11:23:00,
2013-10-26 07:28:00,39.2,34.2,30.23,NW,326,3.0,11.0,82,0.00,,---,0.00,VWS V14.01,2013-10-26 11:28:00,
2013-10-26 07:33:00,39.3,34.3,30.23,WNW,292,4.0,8.0,82,0.00,,---,0.00,VWS V14.01,2013-10-26 11:33:00,
2013-10-26 07:38:00,39.4,34.1,30.23,WNW,290,7.0,9.0,81,0.00,,---,0.00,VWS V14.01,2013-10-26 11:38:00,
2013-10-26 07:43:00,39.6,34.3,30.23,West,279,5.0,9.0,81,0.00,,---,0.00,VWS V14.01,2013-10-26 11:43:00,
2013-10-26 07:48:00,39.7,34.4,30.23,NW,317,7.0,9.0,81,0.00,,---,0.00,VWS V14.01,2013-10-26 11:48:00,
2013-10-26 07:53:00,39.9,34.5,30.23,West,269,5.0,9.0,81,0.00,,---,0.00,VWS V14.01,2013-10-26 11:53:00,
2013-10-26 07:58:00,40.1,34.4,30.23,NW,311,5.0,9.0,80,0.00,,---,0.00,VWS V14.01,2013-10-26 11:58:00,
2013-10-26 08:03:00,40.3,34.6,30.23,West,274,6.0,8.0,80,0.00,,---,0.00,VWS V14.01,2013-10-26 12:03:00,
2013-10-26 08:08:00,40.5,34.8,30.23,WSW,243,7.0,9.0,80,0.00,,---,0.00,VWS V14.01,2013-10-26 12:08:00,
2013-10-26 08:13:00,40.7,35.0,30.23,WSW,243,4.0,9.0,80,0.00,,---,0.00,VWS V14.01,2013-10-26 12:13:00,
2013-10-26 08:18:00,41.0,35.0,30.24,West,274,6.0,9.0,79,0.00,,---,0.00,VWS V14.01,2013-10-26 12:18:00,
2013-10-26 08:23:00,41.3,35.0,30.24,West,281,5.0,9.0,78,0.00,,---,0.00,VWS V14.01,2013-10-26 12:23:00,
2013-10-26 08:28:00,41.7,35.4,30.24,West,270,5.0,9.0,78,0.00,,---,0.00,VWS V14.01,2013-10-26 12:28:00,
2013-10-26 08:33:00,42.1,35.1,30.24,WNW,294,4.0,9.0,76,0.00,,---,0.00,VWS V14.01,2013-10-26 12:33:00,
2013-10-26 08:38:00,42.6,35.6,30.24,West,278,5.0,9.0,76,0.00,,---,0.00,VWS V14.01,2013-10-26 12:38:00,
2013-10-26 08:43:00,43.2,35.8,30.24,WSW,254,7.0,12.0,75,0.00,,---,0.00,VWS V14.01,2013-10-26 12:43:00,
2013-10-26 08:48:00,43.4,35.7,30.24,West,264,8.0,12.0,74,0.00,,---,0.00,VWS V14.01,2013-10-26 12:48:00,
2013-10-26 08:53:00,43.6,35.5,30.24,WSW,247,10.0,12.0,73,0.00,,---,0.00,VWS V14.01,2013-10-26 12:53:00,
2013-10-26 08:58:00,43.9,35.8,30.25,WSW,247,9.0,13.0,73,0.00,,---,0.00,VWS V14.01,2013-10-26 12:58:00,
2013-10-26 09:03:00,44.3,35.9,30.24,NW,305,2.0,11.0,72,0.00,,---,0.00,VWS V14.01,2013-10-26 13:03:00,
2013-10-26 09:08:00,44.6,35.4,30.24,West,263,9.0,13.0,70,0.00,,---,0.00,VWS V14.01,2013-10-26 13:08:00,
2013-10-26 09:13:00,44.8,36.0,30.24,West,262,9.0,13.0,71,0.00,,---,0.00,VWS V14.01,2013-10-26 13:13:00,
2013-10-26 09:18:00,44.9,35.4,30.24,WSW,246,11.0,13.0,69,0.00,,---,0.00,VWS V14.01,2013-10-26 13:18:00,
2013-10-26 09:23:00,45.3,35.4,30.24,WSW,254,7.0,13.0,68,0.00,,---,0.00,VWS V14.01,2013-10-26 13:23:00,
2013-10-26 09:28:00,45.8,35.5,30.24,West,275,6.0,13.0,67,0.00,,---,0.00,VWS V14.01,2013-10-26 13:28:00,
2013-10-26 09:33:00,46.2,35.5,30.23,SW,221,2.0,10.0,66,0.00,,---,0.00,VWS V14.01,2013-10-26 13:33:00,
2013-10-26 09:38:00,47.1,36.3,30.23,SW,231,7.0,10.0,66,0.00,,---,0.00,VWS V14.01,2013-10-26 13:38:00,
2013-10-26 09:43:00,47.8,35.8,30.23,WSW,238,2.0,10.0,63,0.00,,---,0.00,VWS V14.01,2013-10-26 13:43:00,
2013-10-26 09:48:00,48.5,36.1,30.23,South,186,5.0,10.0,62,0.00,,---,0.00,VWS V14.01,2013-10-26 13:48:00,
2013-10-26 09:53:00,48.9,36.1,30.23,West,260,2.0,10.0,61,0.00,,---,0.00,VWS V14.01,2013-10-26 13:53:00,
2013-10-26 09:58:00,49.4,36.1,30.23,WSW,248,4.0,10.0,60,0.00,,---,0.00,VWS V14.01,2013-10-26 13:58:00,
2013-10-26 10:03:00,49.8,36.9,30.23,SSW,198,2.0,5.0,61,0.00,,---,0.00,VWS V14.01,2013-10-26 14:03:00,
2013-10-26 10:08:00,50.9,37.1,30.22,SW,221,2.0,6.0,59,0.00,,---,0.00,VWS V14.01,2013-10-26 14:08:00,
2013-10-26 10:13:00,51.5,36.3,30.22,ESE,122,3.0,9.0,56,0.00,,---,0.00,VWS V14.01,2013-10-26 14:13:00,
2013-10-26 10:18:00,51.9,36.3,30.22,WSW,251,4.0,9.0,55,0.00,,---,0.00,VWS V14.01,2013-10-26 14:18:00,
2013-10-26 10:23:00,51.8,35.7,30.23,WNW,285,2.0,12.0,54,0.00,,---,0.00,VWS V14.01,2013-10-26 14:23:00,
2013-10-26 10:28:00,52.3,37.1,30.22,SSW,210,7.0,12.0,56,0.00,,---,0.00,VWS V14.01,2013-10-26 14:28:00,
2013-10-26 10:33:00,52.3,37.5,30.22,SW,231,6.0,11.0,57,0.00,,---,0.00,VWS V14.01,2013-10-26 14:33:00,
2013-10-26 10:38:00,52.3,37.5,30.22,NE,37,1.0,12.0,57,0.00,,---,0.00,VWS V14.01,2013-10-26 14:38:00,
2013-10-26 10:43:00,52.5,38.6,30.22,ESE,119,5.0,12.0,59,0.00,,---,0.00,VWS V14.01,2013-10-26 14:43:00,
2013-10-26 10:48:00,52.7,38.3,30.21,SSW,201,4.0,12.0,58,0.00,,---,0.00,VWS V14.01,2013-10-26 14:48:00,
2013-10-26 10:53:00,52.8,38.9,30.21,SSE,159,6.0,12.0,59,0.00,,---,0.00,VWS V14.01,2013-10-26 14:53:00,
2013-10-26 10:58:00,53.1,40.0,30.21,NNW,346,7.0,14.0,61,0.00,,---,0.00,VWS V14.01,2013-10-26 14:58:00,
2013-10-26 11:03:00,53.3,39.8,30.21,SSE,155,3.0,12.0,60,0.00,,---,0.00,VWS V14.01,2013-10-26 15:03:00,
2013-10-26 11:08:00,53.3,38.0,30.21,WSW,251,4.0,15.0,56,0.00,,---,0.00,VWS V14.01,2013-10-26 15:08:00,
2013-10-26 11:13:00,53.6,38.8,30.20,ESE,119,8.0,15.0,57,0.00,,---,0.00,VWS V14.01,2013-10-26 15:13:00,
2013-10-26 11:18:00,53.8,38.9,30.20,NE,34,4.0,16.0,57,0.00,,---,0.00,VWS V14.01,2013-10-26 15:18:00,
2013-10-26 11:23:00,53.7,38.4,30.20,NNW,342,5.0,17.0,56,0.00,,---,0.00,VWS V14.01,2013-10-26 15:23:00,
2013-10-26 11:28:00,53.8,38.5,30.20,WSW,237,4.0,17.0,56,0.00,,---,0.00,VWS V14.01,2013-10-26 15:28:00,
2013-10-26 11:33:00,53.8,37.6,30.19,ESE,118,9.0,16.0,54,0.00,,---,0.00,VWS V14.01,2013-10-26 15:33:00,
2013-10-26 11:38:00,53.8,37.6,30.19,SE,129,10.0,21.0,54,0.00,,---,0.00,VWS V14.01,2013-10-26 15:38:00,
2013-10-26 11:44:00,53.9,37.2,30.19,SSW,213,8.0,21.0,53,0.00,,---,0.00,VWS V14.01,2013-10-26 15:44:00,
2013-10-26 11:49:00,54.0,36.8,30.18,South,174,6.0,21.0,52,0.00,,---,0.00,VWS V14.01,2013-10-26 15:49:00,
2013-10-26 11:54:00,54.2,36.0,30.18,SW,214,7.0,21.0,50,0.00,,---,0.00,VWS V14.01,2013-10-26 15:54:00,
2013-10-26 11:59:00,54.5,37.7,30.18,NNE,17,6.0,21.0,53,0.00,,---,0.00,VWS V14.01,2013-10-26 15:59:00,
2013-10-26 12:04:00,54.4,36.7,30.18,NE,47,4.0,23.0,51,0.00,,---,0.00,VWS V14.01,2013-10-26 16:04:00,
2013-10-26 12:09:00,54.5,36.3,30.18,SSW,207,3.0,23.0,50,0.00,,---,0.00,VWS V14.01,2013-10-26 16:09:00,
2013-10-26 12:14:00,54.6,36.3,30.17,SW,227,6.0,23.0,50,0.00,,---,0.00,VWS V14.01,2013-10-26 16:14:00,
2013-10-26 12:19:00,54.8,37.0,30.17,SW,228,11.0,23.0,51,0.00,,---,0.00,VWS V14.01,2013-10-26 16:19:00,
2013-10-26 12:24:00,54.9,36.6,30.17,NNE,23,8.0,23.0,50,0.00,,---,0.00,VWS V14.01,2013-10-26 16:24:00,
2013-10-26 12:29:00,54.6,36.3,30.17,West,273,5.0,23.0,50,0.00,,---,0.00,VWS V14.01,2013-10-26 16:29:00,
2013-10-26 12:34:00,54.8,37.0,30.17,WSW,237,12.0,20.0,51,0.00,,---,0.00,VWS V14.01,2013-10-26 16:34:00,
2013-10-26 12:39:00,54.9,36.6,30.16,West,265,8.0,22.0,50,0.00,,---,0.00,VWS V14.01,2013-10-26 16:39:00,
2013-10-26 12:44:00,55.0,36.7,30.16,East,80,8.0,22.0,50,0.00,,---,0.00,VWS V14.01,2013-10-26 16:44:00,
2013-10-26 12:49:00,54.9,36.6,30.16,NE,46,10.0,22.0,50,0.00,,---,0.00,VWS V14.01,2013-10-26 16:49:00,
2013-10-26 12:54:00,55.0,34.6,30.15,WSW,239,10.0,22.0,46,0.00,,---,0.00,VWS V14.01,2013-10-26 16:54:00,
2013-10-26 12:59:00,55.3,37.0,30.15,SW,236,8.0,22.0,50,0.00,,---,0.00,VWS V14.01,2013-10-26 16:59:00,
2013-10-26 13:04:00,55.5,37.7,30.14,East,93,5.0,20.0,51,0.00,,---,0.00,VWS V14.01,2013-10-26 17:04:00,
2013-10-26 13:09:00,55.6,36.8,30.14,ESE,113,9.0,20.0,49,0.00,,---,0.00,VWS V14.01,2013-10-26 17:09:00,
2013-10-26 13:14:00,55.8,35.3,30.13,SSW,202,7.0,20.0,46,0.00,,---,0.00,VWS V14.01,2013-10-26 17:14:00,
2013-10-26 13:19:00,55.8,35.9,30.13,ENE,72,9.0,20.0,47,0.00,,---,0.00,VWS V14.01,2013-10-26 17:19:00,
2013-10-26 13:24:00,55.7,34.7,30.13,West,264,4.0,20.0,45,0.00,,---,0.00,VWS V14.01,2013-10-26 17:24:00,
2013-10-26 13:29:00,56.0,35.0,30.12,SSE,155,6.0,20.0,45,0.00,,---,0.00,VWS V14.01,2013-10-26 17:29:00,
2013-10-26 13:34:00,55.9,34.9,30.12,SW,236,6.0,18.0,45,0.00,,---,0.00,VWS V14.01,2013-10-26 17:34:00,
2013-10-26 13:39:00,55.8,36.4,30.12,SSW,211,11.0,18.0,48,0.00,,---,0.00,VWS V14.01,2013-10-26 17:39:00,
2013-10-26 13:44:00,55.5,36.7,30.12,NNW,327,4.0,22.0,49,0.00,,---,0.00,VWS V14.01,2013-10-26 17:44:00,
2013-10-26 13:49:00,55.4,36.1,30.12,ESE,116,9.0,26.0,48,0.00,,---,0.00,VWS V14.01,2013-10-26 17:49:00,
2013-10-26 13:54:00,55.5,37.7,30.12,SW,228,16.0,26.0,51,0.00,,---,0.00,VWS V14.01,2013-10-26 17:54:00,
2013-10-26 13:59:00,55.5,38.2,30.11,WSW,258,4.0,26.0,52,0.00,,---,0.00,VWS V14.01,2013-10-26 17:59:00,
2013-10-26 14:04:00,55.6,37.3,30.11,NE,44,12.0,20.0,50,0.00,,---,0.00,VWS V14.01,2013-10-26 18:04:00,
2013-10-26 14:09:00,55.5,38.7,30.11,SE,145,25.0,25.0,53,0.00,,---,0.00,VWS V14.01,2013-10-26 18:09:00,
2013-10-26 14:14:00,55.5,38.2,30.10,SSW,196,15.0,25.0,52,0.00,,---,0.00,VWS V14.01,2013-10-26 18:14:00,
2013-10-26 14:19:00,55.5,40.1,30.10,NE,51,9.0,25.0,56,0.00,,---,0.00,VWS V14.01,2013-10-26 18:19:00,
2013-10-26 14:24:00,55.7,40.3,30.10,WNW,298,10.0,25.0,56,0.00,,---,0.00,VWS V14.01,2013-10-26 18:24:00,
2013-10-26 14:29:00,55.9,38.5,30.10,SW,230,12.0,25.0,52,0.00,,---,0.00,VWS V14.01,2013-10-26 18:29:00,
2013-10-26 14:34:00,56.3,38.9,30.09,ESE,116,7.0,19.0,52,0.00,,---,0.00,VWS V14.01,2013-10-26 18:34:00,
2013-10-26 14:39:00,55.6,39.7,30.09,South,191,9.0,21.0,55,0.00,,---,0.00,VWS V14.01,2013-10-26 18:39:00,
2013-10-26 14:44:00,55.5,40.5,30.08,West,260,14.0,21.0,57,0.00,,---,0.00,VWS V14.01,2013-10-26 18:44:00,
2013-10-26 14:49:00,56.0,41.5,30.08,SSW,205,14.0,21.0,58,0.00,,---,0.00,VWS V14.01,2013-10-26 18:49:00,
2013-10-26 14:54:00,56.1,40.2,30.08,SSE,158,8.0,21.0,55,0.00,,---,0.00,VWS V14.01,2013-10-26 18:54:00,
2013-10-26 14:59:00,55.8,39.4,30.07,SSW,208,12.0,21.0,54,0.00,,---,0.00,VWS V14.01,2013-10-26 18:59:00,
2013-10-26 15:04:00,55.6,39.2,30.07,North,6,7.0,16.0,54,0.00,,---,0.00,VWS V14.01,2013-10-26 19:04:00,
2013-10-26 15:09:00,55.7,42.0,30.07,NE,49,17.0,20.0,60,0.00,,---,0.00,VWS V14.01,2013-10-26 19:09:00,
2013-10-26 15:14:00,55.8,41.3,30.07,ESE,106,9.0,20.0,58,0.00,,---,0.00,VWS V14.01,2013-10-26 19:14:00,
2013-10-26 15:19:00,55.8,41.7,30.06,SSW,195,10.0,20.0,59,0.00,,---,0.00,VWS V14.01,2013-10-26 19:19:00,
2013-10-26 15:24:00,55.9,43.1,30.06,WSW,238,10.0,20.0,62,0.00,,---,0.00,VWS V14.01,2013-10-26 19:24:00,
2013-10-26 15:29:00,56.0,41.9,30.06,SW,229,11.0,20.0,59,0.00,,---,0.00,VWS V14.01,2013-10-26 19:29:00,
2013-10-26 15:34:00,56.0,42.8,30.06,ENE,66,13.0,24.0,61,0.00,,---,0.00,VWS V14.01,2013-10-26 19:34:00,
2013-10-26 15:39:00,56.0,41.9,30.05,SSW,202,5.0,24.0,59,0.00,,---,0.00,VWS V14.01,2013-10-26 19:39:00,
2013-10-26 15:44:00,56.1,42.0,30.05,WSW,250,10.0,24.0,59,0.00,,---,0.00,VWS V14.01,2013-10-26 19:44:00,
2013-10-26 15:49:00,56.1,42.4,30.05,South,181,13.0,24.0,60,0.00,,---,0.00,VWS V14.01,2013-10-26 19:49:00,
2013-10-26 15:54:00,56.2,41.6,30.05,West,271,12.0,24.0,58,0.00,,---,0.00,VWS V14.01,2013-10-26 19:54:00,
2013-10-26 15:59:00,56.1,42.0,30.04,East,94,9.0,24.0,59,0.00,,---,0.00,VWS V14.01,2013-10-26 19:59:00,
2013-10-26 16:04:00,56.1,42.0,30.04,SW,229,10.0,18.0,59,0.00,,---,0.00,VWS V14.01,2013-10-26 20:04:00,
2013-10-26 16:09:00,56.2,43.4,30.04,West,272,9.0,21.0,62,0.00,,---,0.00,VWS V14.01,2013-10-26 20:09:00,
2013-10-26 16:14:00,56.4,42.7,30.03,SSW,209,12.0,21.0,60,0.00,,---,0.00,VWS V14.01,2013-10-26 20:14:00,
2013-10-26 16:19:00,56.2,43.0,30.03,NW,319,9.0,21.0,61,0.00,,---,0.00,VWS V14.01,2013-10-26 20:19:00,
2013-10-26 16:24:00,56.2,42.5,30.03,West,268,7.0,21.0,60,0.00,,---,0.00,VWS V14.01,2013-10-26 20:24:00,
2013-10-26 16:29:00,56.2,42.5,30.02,South,184,10.0,21.0,60,0.00,,---,0.00,VWS V14.01,2013-10-26 20:29:00,
2013-10-26 16:34:00,56.1,42.8,30.02,SW,229,5.0,18.0,61,0.00,,---,0.00,VWS V14.01,2013-10-26 20:34:00,
2013-10-26 16:39:00,56.2,43.8,30.02,NNW,335,5.0,21.0,63,0.00,,---,0.00,VWS V14.01,2013-10-26 20:39:00,
2013-10-26 16:44:00,56.4,44.0,30.02,SW,217,18.0,21.0,63,0.00,,---,0.00,VWS V14.01,2013-10-26 20:44:00,
2013-10-26 16:49:00,56.3,42.2,30.02,NNE,32,15.0,21.0,59,0.00,,---,0.00,VWS V14.01,2013-10-26 20:49:00,
2013-10-26 16:54:00,56.2,43.8,30.01,SE,141,8.0,21.0,63,0.00,,---,0.00,VWS V14.01,2013-10-26 20:54:00,
2013-10-26 16:59:00,56.2,43.8,30.01,SSW,203,11.0,21.0,63,0.00,,---,0.00,VWS V14.01,2013-10-26 20:59:00,
2013-10-26 17:04:00,56.3,44.3,30.00,NW,313,4.0,15.0,64,0.00,,---,0.00,VWS V14.01,2013-10-26 21:04:00,
2013-10-26 17:09:00,56.3,44.3,30.00,NNW,327,11.0,21.0,64,0.00,,---,0.00,VWS V14.01,2013-10-26 21:09:00,
2013-10-26 17:14:00,56.2,43.0,30.00,SW,235,17.0,21.0,61,0.00,,---,0.00,VWS V14.01,2013-10-26 21:14:00,
2013-10-26 17:19:00,56.2,43.0,30.00,ENE,60,13.0,22.0,61,0.00,,---,0.00,VWS V14.01,2013-10-26 21:19:00,
2013-10-26 17:24:00,56.2,43.8,29.99,WNW,296,8.0,26.0,63,0.00,,---,0.00,VWS V14.01,2013-10-26 21:24:00,
2013-10-26 17:29:00,56.3,43.9,29.99,WNW,299,6.0,26.0,63,0.00,,---,0.00,VWS V14.01,2013-10-26 21:29:00,
2013-10-26 17:34:00,56.2,42.1,30.00,SSW,202,6.0,20.0,59,0.00,,---,0.00,VWS V14.01,2013-10-26 21:34:00,
2013-10-26 17:39:00,56.2,42.1,29.99,South,177,13.0,22.0,59,0.00,,---,0.00,VWS V14.01,2013-10-26 21:39:00,
2013-10-26 17:44:00,56.2,41.2,29.99,West,263,18.0,22.0,57,0.00,,---,0.00,VWS V14.01,2013-10-26 21:44:00,
2013-10-26 17:49:00,56.1,42.0,29.99,East,92,18.0,25.0,59,0.00,,---,0.00,VWS V14.01,2013-10-26 21:49:00,
2013-10-26 17:54:00,55.9,41.3,29.99,SSW,199,7.0,25.0,58,0.00,,---,0.00,VWS V14.01,2013-10-26 21:54:00,
2013-10-26 17:59:00,55.8,39.9,29.98,ESE,122,18.0,25.0,55,0.00,,---,0.00,VWS V14.01,2013-10-26 21:59:00,
2013-10-26 18:04:00,55.8,37.5,29.98,NNE,29,11.0,25.0,50,0.00,,---,0.00,VWS V14.01,2013-10-26 22:04:00,
2013-10-26 18:09:00,55.6,36.2,29.98,WSW,253,15.0,25.0,48,0.00,,---,0.00,VWS V14.01,2013-10-26 22:09:00,
2013-10-26 18:14:00,55.5,37.2,29.98,SW,223,11.0,25.0,50,0.00,,---,0.00,VWS V14.01,2013-10-26 22:14:00,
2013-10-26 18:19:00,55.4,37.6,29.98,SSW,195,21.0,25.0,51,0.00,,---,0.00,VWS V14.01,2013-10-26 22:19:00,
2013-10-26 18:24:00,55.2,36.9,29.98,WSW,252,13.0,25.0,50,0.00,,---,0.00,VWS V14.01,2013-10-26 22:24:00,
2013-10-26 18:29:00,55.1,36.8,29.98,South,172,16.0,25.0,50,0.00,,---,0.00,VWS V14.01,2013-10-26 22:29:00,
2013-10-26 18:34:00,55.1,37.8,29.97,East,90,7.0,21.0,52,0.00,,---,0.00,VWS V14.01,2013-10-26 22:34:00,
2013-10-26 18:39:00,55.0,38.2,29.97,SSE,158,14.0,23.0,53,0.00,,---,0.00,VWS V14.01,2013-10-26 22:39:00,
2013-10-26 18:44:00,55.0,37.7,29.98,South,191,10.0,23.0,52,0.00,,---,0.00,VWS V14.01,2013-10-26 22:44:00,
2013-10-26 18:49:00,54.9,37.1,29.97,SW,226,16.0,23.0,51,0.00,,---,0.00,VWS V14.01,2013-10-26 22:49:00,
2013-10-26 18:54:00,55.0,38.2,29.98,SW,229,9.0,23.0,53,0.00,,---,0.00,VWS V14.01,2013-10-26 22:54:00,
2013-10-26 18:59:00,54.9,37.6,29.97,SSE,148,10.0,23.0,52,0.00,,---,0.00,VWS V14.01,2013-10-26 22:59:00,
2013-10-26 19:04:00,54.9,38.6,29.97,SSE,153,4.0,20.0,54,0.00,,---,0.00,VWS V14.01,2013-10-26 23:04:00,
2013-10-26 19:09:00,54.9,37.6,29.97,WNW,291,12.0,23.0,52,0.00,,---,0.00,VWS V14.01,2013-10-26 23:09:00,
2013-10-26 19:14:00,54.9,36.1,29.97,NW,316,8.0,25.0,49,0.00,,---,0.00,VWS V14.01,2013-10-26 23:14:00,
2013-10-26 19:19:00,54.9,36.1,29.97,ENE,63,5.0,25.0,49,0.00,,---,0.00,VWS V14.01,2013-10-26 23:19:00,
2013-10-26 19:24:00,54.9,37.6,29.97,West,266,20.0,25.0,52,0.00,,---,0.00,VWS V14.01,2013-10-26 23:24:00,
2013-10-26 19:29:00,54.9,36.6,29.96,SW,226,19.0,25.0,50,0.00,,---,0.00,VWS V14.01,2013-10-26 23:29:00,
2013-10-26 19:34:00,54.9,36.6,29.96,SW,222,13.0,24.0,50,0.00,,---,0.00,VWS V14.01,2013-10-26 23:34:00,
2013-10-26 19:39:00,55.0,36.2,29.97,SW,228,12.0,25.0,49,0.00,,---,0.00,VWS V14.01,2013-10-26 23:39:00,
2013-10-26 19:44:00,55.0,37.7,29.97,South,191,10.0,25.0,52,0.00,,---,0.00,VWS V14.01,2013-10-26 23:44:00,
2013-10-26 19:49:00,54.8,37.5,29.97,SE,134,11.0,25.0,52,0.00,,---,0.00,VWS V14.01,2013-10-26 23:49:00,
2013-10-26 19:54:00,54.7,37.4,29.96,West,264,6.0,25.0,52,0.00,,---,0.00,VWS V14.01,2013-10-26 23:54:00,
2013-10-26 19:59:00,54.5,36.3,29.96,SW,229,18.0,25.0,50,0.00,,---,0.00,VWS V14.01,2013-10-26 23:59:00,
2013-10-26 20:04:00,54.6,36.8,29.96,South,191,7.0,23.0,51,0.00,,---,0.00,VWS V14.01,2013-10-27 00:04:00,
2013-10-26 20:09:00,54.5,36.8,29.95,SSW,209,25.0,25.0,51,0.00,,---,0.00,VWS V14.01,2013-10-27 00:09:00,
2013-10-26 20:14:00,54.5,36.3,29.96,SSW,210,7.0,25.0,50,0.00,,---,0.00,VWS V14.01,2013-10-27 00:14:00,
2013-10-26 20:19:00,54.6,36.3,29.96,SSW,205,9.0,26.0,50,0.00,,---,0.00,VWS V14.01,2013-10-27 00:19:00,
2013-10-26 20:24:00,54.7,34.9,29.96,WSW,243,14.0,26.0,47,0.00,,---,0.00,VWS V14.01,2013-10-27 00:24:00,
2013-10-26 20:29:00,54.6,35.3,29.96,East,91,11.0,26.0,48,0.00,,---,0.00,VWS V14.01,2013-10-27 00:29:00,
2013-10-26 20:34:00,54.6,35.8,29.96,WSW,243,11.0,19.0,49,0.00,,---,0.00,VWS V14.01,2013-10-27 00:34:00,
2013-10-26 20:39:00,54.5,36.3,29.96,SE,142,10.0,19.0,50,0.00,,---,0.00,VWS V14.01,2013-10-27 00:39:00,
2013-10-26 20:44:00,54.6,35.8,29.97,SSW,200,10.0,21.0,49,0.00,,---,0.00,VWS V14.01,2013-10-27 00:44:00,
2013-10-26 20:49:00,54.6,34.8,29.96,SW,214,12.0,21.0,47,0.00,,---,0.00,VWS V14.01,2013-10-27 00:49:00,
2013-10-26 20:54:00,54.7,35.4,29.96,SW,224,8.0,23.0,48,0.00,,---,0.00,VWS V14.01,2013-10-27 00:54:00,
2013-10-26 20:59:00,54.7,36.4,29.96,East,91,13.0,23.0,50,0.00,,---,0.00,VWS V14.01,2013-10-27 00:59:00,
2013-10-26 21:04:00,54.6,37.3,29.96,WSW,244,11.0,24.0,52,0.00,,---,0.00,VWS V14.01,2013-10-27 01:04:00,
2013-10-26 21:09:00,54.5,37.2,29.96,SW,224,6.0,24.0,52,0.00,,---,0.00,VWS V14.01,2013-10-27 01:09:00,
2013-10-26 21:14:00,54.3,37.5,29.96,West,274,8.0,24.0,53,0.00,,---,0.00,VWS V14.01,2013-10-27 01:14:00,
2013-10-26 21:19:00,54.2,37.9,29.96,SW,226,6.0,24.0,54,0.00,,---,0.00,VWS V14.01,2013-10-27 01:19:00,
2013-10-26 21:24:00,54.1,37.8,29.96,SE,138,16.0,24.0,54,0.00,,---,0.00,VWS V14.01,2013-10-27 01:24:00,
2013-10-26 21:29:00,54.0,38.2,29.96,SSE,162,5.0,24.0,55,0.00,,---,0.00,VWS V14.01,2013-10-27 01:29:00,
2013-10-26 21:34:00,53.9,38.1,29.96,SSW,198,12.0,15.0,55,0.00,,---,0.00,VWS V14.01,2013-10-27 01:34:00,
2013-10-26 21:39:00,53.8,38.0,29.96,ESE,120,5.0,19.0,55,0.00,,---,0.00,VWS V14.01,2013-10-27 01:39:00,
2013-10-26 21:44:00,53.7,37.9,29.97,WSW,250,8.0,19.0,55,0.00,,---,0.00,VWS V14.01,2013-10-27 01:44:00,
2013-10-26 21:49:00,53.7,37.5,29.97,WSW,252,15.0,19.0,54,0.00,,---,0.00,VWS V14.01,2013-10-27 01:49:00,
2013-10-26 21:54:00,53.7,37.5,29.96,SSE,162,4.0,20.0,54,0.00,,---,0.00,VWS V14.01,2013-10-27 01:54:00,
2013-10-26 21:59:00,53.6,37.4,29.96,SW,219,17.0,20.0,54,0.00,,---,0.00,VWS V14.01,2013-10-27 01:59:00,
2013-10-26 22:04:00,53.6,37.8,29.96,WNW,302,8.0,19.0,55,0.00,,---,0.00,VWS V14.01,2013-10-27 02:04:00,
2013-10-26 22:09:00,53.4,37.7,29.96,South,184,9.0,19.0,55,0.00,,---,0.00,VWS V14.01,2013-10-27 02:09:00,
2013-10-26 22:14:00,53.3,37.6,29.96,SW,226,7.0,19.0,55,0.00,,---,0.00,VWS V14.01,2013-10-27 02:14:00,
2013-10-26 22:19:00,53.2,37.5,29.96,SW,219,5.0,19.0,55,0.00,,---,0.00,VWS V14.01,2013-10-27 02:19:00,
2013-10-26 22:24:00,53.1,37.4,29.96,SSW,211,6.0,19.0,55,0.00,,---,0.00,VWS V14.01,2013-10-27 02:24:00,
2013-10-26 22:29:00,52.9,37.2,29.95,SSW,207,5.0,19.0,55,0.00,,---,0.00,VWS V14.01,2013-10-27 02:29:00,
2013-10-26 22:34:00,52.8,37.1,29.95,WSW,250,3.0,12.0,55,0.00,,---,0.00,VWS V14.01,2013-10-27 02:34:00,
2013-10-26 22:39:00,52.6,37.4,29.95,WSW,250,7.0,13.0,56,0.00,,---,0.00,VWS V14.01,2013-10-27 02:39:00,
2013-10-26 22:44:00,52.6,37.4,29.95,South,186,11.0,17.0,56,0.00,,---,0.00,VWS V14.01,2013-10-27 02:44:00,
2013-10-26 22:49:00,52.5,37.3,29.95,East,86,4.0,17.0,56,0.00,,---,0.00,VWS V14.01,2013-10-27 02:49:00,
2013-10-26 22:54:00,52.3,37.5,29.95,WSW,252,4.0,17.0,57,0.00,,---,0.00,VWS V14.01,2013-10-27 02:54:00,
2013-10-26 22:59:00,52.2,37.4,29.95,ENE,60,8.0,17.0,57,0.00,,---,0.00,VWS V14.01,2013-10-27 02:59:00,
2013-10-26 23:04:00,52.1,37.3,29.95,South,174,7.0,14.0,57,0.00,,---,0.00,VWS V14.01,2013-10-27 03:04:00,
2013-10-26 23:09:00,52.1,37.3,29.95,SE,143,10.0,15.0,57,0.00,,---,0.00,VWS V14.01,2013-10-27 03:09:00,
2013-10-26 23:14:00,52.2,37.0,29.95,SSW,208,9.0,15.0,56,0.00,,---,0.00,VWS V14.01,2013-10-27 03:14:00,
2013-10-26 23:19:00,52.4,37.2,29.94,WSW,240,6.0,15.0,56,0.00,,---,0.00,VWS V14.01,2013-10-27 03:19:00,
2013-10-26 23:24:00,52.5,37.3,29.94,SSW,195,5.0,18.0,56,0.00,,---,0.00,VWS V14.01,2013-10-27 03:24:00,
2013-10-26 23:29:00,52.7,37.5,29.94,SE,129,6.0,18.0,56,0.00,,---,0.00,VWS V14.01,2013-10-27 03:29:00,
2013-10-26 23:34:00,52.7,37.5,29.94,SW,228,9.0,18.0,56,0.00,,---,0.00,VWS V14.01,2013-10-27 03:34:00,
2013-10-26 23:39:00,52.7,37.5,29.94,SW,219,6.0,18.0,56,0.00,,---,0.00,VWS V14.01,2013-10-27 03:39:00,
2013-10-26 23:44:00,52.8,37.5,29.93,SSW,203,10.0,18.0,56,0.00,,---,0.00,VWS V14.01,2013-10-27 03:44:00,
2013-10-26 23:49:00,52.9,37.7,29.93,WSW,240,1.0,18.0,56,0.00,,---,0.00,VWS V14.01,2013-10-27 03:49:00,
2013-10-26 23:54:00,53.0,37.7,29.93,South,181,6.0,18.0,56,0.00,,---,0.00,VWS V14.01,2013-10-27 03:54:00,
2013-10-26 23:59:00,53.0,38.2,29.93,NE,46,1.0,18.0,57,0.00,,---,0.00,VWS V14.01,2013-10-27 03:59:00,